STARLINK-5639, 55365

Orbit data source: Space-Track

STARLINK-5639, 55365 is a payload satellite owned by SpaceX/Seattle (US) in LEO that was launched on Thu, 26 Jan 2023 UTC via an FALCON 9 launch vehicle from the Air Force Eastern Test Range (AFETR). Payload-class satellites include a variety of spacecraft equipped with specific instruments for various scientific and technological missions. These include communications satellites like Starlink; space stations such as the ISS; scientific satellites like the Hubble; Earth observation satellites from companies like Planet Labs, Umbra, and HawkEye 360; GPS; miniature CubeSats for education and research; and military/defense satellites.

Loading next visibility...
Identifier
55365, 2023-013AL
Orbit
LEO
Country
Flag of USUS
Related business
Manufacturer
SpaceX/Seattle
Mission
Operational Commercial Communications
Bus & Motor
STARLINK, Unknown motor
Mass
305 kg wet, ~290 kg dry
Launch date (UTC)
2023-01-26 (3 years ago)
Launch vehicle
FALCON 9
Launch site
Air Force Eastern Test Range (AFETR)
Object type
Payload
Rocket body
Debris
Shape & HBR
Box + 1 Pan, 10.1 m
Radar Cross Section
13.562 m², Large (>1 m²)

Expand to show TLE details & history
Last TLE update: 1 day ago

TLE from 1 day ago
0 STARLINK-5639
1 55365U 23013AL  25348.55641777 -.00000806  00000-0 -44632-4 0  9996
2 55365  43.0042  55.8700 0001169 269.6833  90.3876 15.02528897158754
Epoch: 2025-12-14T13:21Z
TLE epoch observation values (Epoch: 2025-12-14T13:21:14.495Z)
Latitude
0.00003°
Longitude
132.092°
Altitude
558.885 km
Speed
7.584 km/s
True Right ascension
03h 43m 28s
True Declination
0° 00' 00"
Sunlit
Object was in full shadow at epoch
Visualization orbit readout
Latitude
Unknown
Longitude
Unknown
Altitude
Unknown
Speed
Unknown
Apparent Right ascension
Unknown
Apparent Declination
Unknown
Sunlit
N/A
Visualization observer readout
Local Sidereal Time
15:11:34
Azimuth
Unknown
Elevation
Unknown
Doppler factor
Unknown
Orbital elements
Apogee altitude
561.836 km
Perigee altitude
560.213 km
Semi-major axis
6,939.162 km
Eccentricity
0.00012
Inclination
43.0042°
RAAN
55.87°
Arg. of periapsis
269.6833°
True anomaly
90.401°
Mean anomaly
90.3876°
Eccentric anomaly
90.3943°
Mean motion
3.75476 °/min
Orbital period
95.88 mins
BSTAR
-0.000044632
Loading maneuver chart data...
Computing Atmospheric mass density...
Loading historical data...
Loading historical data...
Loading historical data...
Loading historical data...
Loading historical data...
Loading historical data...
Loading historical data...

Documentation

Showing up to 5 results
|